43P/Wolf-Harrington (2010)

Japanese version
Home page
Updated on March 27, 2010

---------------------------------------------------------------------

* Profile

* Pictures

* Orbital Elements

The following orbital elements are taken from MPC 59600:

Epoch 2010 June 13.0 TT = JDT 2455360.5
T 2010 July 1.7431 TT                                   MPC
q   1.357615             (2000.0)            P               Q
n   0.1609164      Peri.  191.4688      +0.1573459      -0.9531614
a   3.347617       Node   249.8960      +0.9264189      +0.2330637
e   0.594453       Incl.   15.9664      +0.3420385      -0.1927813
P   6.12
From 1893 observations 1990-2005, mean residual 0".7.  Nongravitational
     parameters A1 = +0.35, A2 = -0.0235.

* Finding Charts

* Magnitudes Graph

        m1 = 7.5 + 5 log d + 17.0 log r

---------------------------------------------------------------------

The orbital elements are published at the MPC Ephemerides and Orbital Elements.
The charts are made with StellaNavigator Ver.2.0 for Windows (AstroArts / ASCII).
The magnitudes graphs are made with Comet for Windows.

---------------------------------------------------------------------

Copyright(C) Seiichi Yoshida (comet@aerith.net). All rights reserved.